Knoxville, TN

6:45 AM EDT on June 21, 2018 (GMT -0400)
McGhee Tyson

Weather History for KTYS - June, 2018

Change the Weather History Date:

Wednesday, June 13, 2018

  Actual Average Record
Temperature  
Mean Temperature 78 °F 75 °F  
Max Temperature 86 °F 85 °F 96 °F (1958)
Min Temperature 70 °F 64 °F 42 °F (1903)
Degree Days  
Heating Degree Days 0 0  
Month to date heating degree days 0 0  
Since 1 June heating degree days 0 0  
Since 1 July heating degree days 3530 3633  
Cooling Degree Days 13 10  
Month to date cooling degree days 140 109  
Year to date cooling degree days 454 271  
Since 1 June cooling degree days 140 109  
Growing Degree Days 28 (Base 50)    
Moisture  
Dew Point 68 °F    
Average Humidity 75    
Maximum Humidity 90    
Minimum Humidity 59    
Precipitation  
Precipitation 0.00 in 0.12 in 1.84 in (1922)
Month to date precipitation 0.13 1.60  
Year to date precipitation 23.56 23.04  
Snow  
Snow 0.00 in 0.00 in - ()
Month to date snowfall 0.0 0.0  
Since 1 June snowfall 0.0 0.0  
Since 1 July snowfall 2.6 6.5  
Snow Depth 0.00 in    
Sea Level Pressure  
Sea Level Pressure 30.01 in    
Wind  
Wind Speed 8 mph (WSW)    
Max Wind Speed 17 mph    
Max Gust Speed 23 mph    
Visibility 10 miles    
Events      
T = Trace of Precipitation, MM = Missing Value Source: NWS Daily Summary

Daily Weather History Graph

Daily Weather History Graph

Search for Another Location

Airport or City:

Astronomy

Jun. 13, 2018 Rise Set
Actual Time 6:19 AM EDT 8:53 PM EDT
Civil Twilight 5:49 AM EDT 9:23 PM EDT
Nautical Twilight 5:11 AM EDT 10:00 PM EDT
Astronomical Twilight 4:30 AM EDT 10:41 PM EDT
Moon 6:17 AM EDT (6/13) 8:49 PM EDT (6/13)
Length of Visible Light 15h 34m
Length of Day
14h 33m
Waning Crescent, 0% of the Moon is Illuminated
Jun 13
Waning Crescent
Jun 13
New
Jun 20
First Quarter
Jun 28
Full
Jul 6
Last Quarter

Hourly Weather History & Observations

Time (EDT) Temp. Heat Index Dew Point Humidity Pressure Visibility Wind Dir Wind Speed Gust Speed Precip Events Conditions
12:53 AM 75.0 °F - 64.9 °F 71% 30.02 in 10.0 mi SW 6.9 mph - N/A   Scattered Clouds
1:53 AM 73.0 °F - 64.9 °F 76% 30.01 in 10.0 mi WSW 5.8 mph - N/A   Scattered Clouds
2:53 AM 72.0 °F - 64.9 °F 78% 29.99 in 10.0 mi West 3.5 mph - N/A   Scattered Clouds
3:53 AM 71.1 °F - 66.0 °F 84% 29.99 in 10.0 mi Calm Calm - N/A   Mostly Cloudy
4:53 AM 71.1 °F - 66.0 °F 84% 30.00 in 10.0 mi West 8.1 mph - N/A   Mostly Cloudy
5:53 AM 71.1 °F - 66.0 °F 84% 30.01 in 10.0 mi West 9.2 mph - N/A   Overcast
6:53 AM 70.0 °F - 66.9 °F 90% 30.02 in 10.0 mi SW 5.8 mph - N/A   Overcast
7:53 AM 72.0 °F - 66.9 °F 84% 30.02 in 10.0 mi SW 5.8 mph - N/A   Mostly Cloudy
8:53 AM 75.0 °F - 68.0 °F 79% 30.03 in 10.0 mi SW 5.8 mph - N/A   Mostly Cloudy
9:53 AM 75.9 °F - 68.0 °F 76% 30.04 in 10.0 mi WSW 10.4 mph - N/A   Overcast
10:01 AM 75.9 °F - 68.0 °F 76% 30.07 in 10.0 mi SW 17.3 mph 20.7 mph N/A   Overcast
10:48 AM 78.8 °F - 69.8 °F 74% 30.07 in 10.0 mi WSW 8.1 mph - N/A   Mostly Cloudy
10:53 AM 78.1 °F - 69.1 °F 74% 30.04 in 10.0 mi SW 10.4 mph - N/A   Mostly Cloudy
11:53 AM 80.1 °F 82.7 °F 68.0 °F 67% 30.05 in 10.0 mi SW 17.3 mph - N/A   Overcast
12:53 PM 82.0 °F 84.9 °F 68.0 °F 62% 30.03 in 10.0 mi WSW 15.0 mph - N/A   Mostly Cloudy
1:53 PM 84.0 °F 87.0 °F 68.0 °F 58% 30.01 in 10.0 mi WSW 12.7 mph - N/A   Mostly Cloudy
2:53 PM 84.0 °F 87.0 °F 68.0 °F 58% 30.00 in 10.0 mi WSW 11.5 mph - N/A   Mostly Cloudy
3:53 PM 84.9 °F 88.8 °F 69.1 °F 59% 29.98 in 10.0 mi SW 10.4 mph - N/A   Mostly Cloudy
4:53 PM 84.0 °F 87.0 °F 68.0 °F 58% 29.97 in 10.0 mi SSW 12.7 mph - N/A   Mostly Cloudy
5:53 PM 82.0 °F 85.5 °F 69.1 °F 65% 29.96 in 10.0 mi SW 13.8 mph - N/A   Mostly Cloudy
6:53 PM 82.0 °F 85.5 °F 69.1 °F 65% 29.96 in 10.0 mi WSW 6.9 mph - N/A   Mostly Cloudy
7:53 PM 82.0 °F 85.9 °F 70.0 °F 67% 29.97 in 10.0 mi West 5.8 mph - N/A   Overcast
8:53 PM 78.1 °F - 71.1 °F 79% 29.97 in 10.0 mi SW 6.9 mph - N/A   Mostly Cloudy
9:53 PM 77.0 °F - 70.0 °F 79% 29.99 in 10.0 mi SW 9.2 mph - N/A   Mostly Cloudy
10:53 PM 75.9 °F - 70.0 °F 82% 30.00 in 10.0 mi WSW 6.9 mph - N/A   Scattered Clouds
11:53 PM 73.0 °F - 70.0 °F 90% 30.00 in 10.0 mi SW 4.6 mph - N/A   Scattered Clouds